TimeEST,TemperatureF,Dew PointF,Humidity,Sea Level PressureIn,VisibilityMPH,Wind Direction,Wind SpeedMPH,Gust SpeedMPH,PrecipitationIn,Events,Conditions,WindDirDegrees,DateUTC
12:53 AM,57.9,51.1,78,30.09,10.0,North,4.6,-,N/A,,Clear,350,2012-11-25 05:53:00
1:53 AM,55.9,50.0,80,30.09,10.0,NNE,3.5,-,N/A,,Clear,20,2012-11-25 06:53:00
2:53 AM,55.0,48.9,80,30.09,10.0,North,4.6,-,N/A,,Clear,10,2012-11-25 07:53:00
3:53 AM,53.1,48.9,86,30.08,10.0,Calm,Calm,-,N/A,,Clear,0,2012-11-25 08:53:00
4:53 AM,50.0,48.0,93,30.08,10.0,Calm,Calm,-,N/A,,Clear,0,2012-11-25 09:53:00
5:53 AM,52.0,48.9,89,30.09,10.0,NNW,3.5,-,N/A,,Clear,340,2012-11-25 10:53:00
6:53 AM,51.1,48.0,89,30.12,10.0,North,3.5,-,N/A,,Clear,360,2012-11-25 11:53:00
7:53 AM,54.0,48.9,83,30.13,10.0,Calm,Calm,-,N/A,,Clear,0,2012-11-25 12:53:00
8:53 AM,59.0,51.1,75,30.14,10.0,NE,3.5,-,N/A,,Clear,50,2012-11-25 13:53:00
9:53 AM,63.0,52.0,67,30.16,10.0,NE,6.9,-,N/A,,Clear,40,2012-11-25 14:53:00
10:53 AM,66.0,51.1,59,30.16,10.0,NE,5.8,-,N/A,,Clear,50,2012-11-25 15:53:00
11:53 AM,68.0,48.0,49,30.14,10.0,Calm,Calm,-,N/A,,Clear,0,2012-11-25 16:53:00
12:53 PM,69.1,52.0,54,30.11,10.0,NW,6.9,-,N/A,,Clear,320,2012-11-25 17:53:00
1:53 PM,68.0,51.1,55,30.09,10.0,WNW,10.4,-,N/A,,Clear,300,2012-11-25 18:53:00
2:53 PM,69.1,50.0,51,30.07,10.0,WNW,8.1,-,N/A,,Clear,300,2012-11-25 19:53:00
3:53 PM,68.0,51.1,55,30.08,10.0,WNW,9.2,-,N/A,,Clear,290,2012-11-25 20:53:00
4:53 PM,66.9,50.0,54,30.08,10.0,NW,3.5,-,N/A,,Clear,320,2012-11-25 21:53:00
5:53 PM,63.0,52.0,67,30.09,10.0,NW,3.5,-,N/A,,Clear,310,2012-11-25 22:53:00
6:53 PM,62.1,52.0,70,30.10,10.0,NNW,3.5,-,N/A,,Clear,330,2012-11-25 23:53:00
7:53 PM,61.0,54.0,78,30.12,10.0,NNW,4.6,-,N/A,,Clear,330,2012-11-26 00:53:00
8:53 PM,60.1,52.0,75,30.13,10.0,North,3.5,-,N/A,,Clear,10,2012-11-26 01:53:00
9:53 PM,57.0,51.1,81,30.14,10.0,Calm,Calm,-,N/A,,Clear,0,2012-11-26 02:53:00
10:53 PM,55.0,-9999,N/A,30.14,10.0,Calm,Calm,-,N/A,,Clear,0,2012-11-26 03:53:00
11:53 PM,55.0,-9999,N/A,30.14,10.0,Calm,Calm,-,N/A,,Clear,0,2012-11-26 04:53:00